User: anonymous   Login
Location: Proctor
(47.8934°N, 114.3048°W)
Time: 23:14:31
(UTC+00:00)
Language:

Tiros 1 despin weight - Orbit

View from above orbital plane
View from above orbital plane
View from above satellite
View from above satellite

Ground track
Ground track

The orbit data is extracted from the following two-line orbital elements,

1   115U 60002D   25197.67443386  .00002373  00000-0  23361-3 0  9993
2   115  48.1637 308.0303 0027754 190.8080 169.2244 14.95265102489033
Epoch (UTC): 16 July 2025 16:11:11
Eccentricity: 0.0027754
inclination: 48.1637°
perigee height: 562 km
apogee height: 601 km
right ascension of ascending node: 308.0303°
argument of perigee: 190.8080°
revolutions per day: 14.95265102
mean anomaly at epoch: 169.2244°
orbit number at epoch: 48903

The dashed part of the orbit path shows where the satellite is in the earth's shadow,  

DLR